User: anonymous   Login
Location: Mainz-Finthen
(49.9906°N, 8.1713°E)
Time: 22:47:37
(UTC+00:00)
Language:

NOAA 15 - Orbit

View from above orbital plane
View from above orbital plane
View from above satellite
View from above satellite

Ground track
Ground track

The orbit data is extracted from the following two-line orbital elements,

1 25338U 98030A   21335.56551531  .00000072  00000-0  48409-4 0  9994
2 25338  98.6667   2.4709 0010953 149.6116 210.5700 14.26073107225064
Epoch (UTC): 01 December 2021 13:34:20
Eccentricity: 0.0010953
inclination: 98.6667°
perigee height: 797 km
apogee height: 813 km
right ascension of ascending node: 2.4709°
argument of perigee: 149.6116°
revolutions per day: 14.26073107
mean anomaly at epoch: 210.5700°
orbit number at epoch: 22506

The dashed part of the orbit path shows where the satellite is in the earth's shadow,  

DLR